This is the latest recevied weather packets stored in our database for station/object XE1MMG-6. If no packets are shown the sender has not sent any weather packets the latest 1 day(s).
| Time | Temp. | Humidity | Pressure | Rain* | Wind** | Luminosity | Snow |
|---|---|---|---|---|---|---|---|
| 1778066419 | 28.89° C | 34% | 812.5 hPa | - | - | - | - |
| 1778064576 | 30° C | 34% | 812.3 hPa | - | - | - | - |
| 1778062119 | 31.11° C | 33% | 812.1 hPa | - | - | - | - |
| 1778061505 | 31.11° C | 35% | 812 hPa | - | - | - | - |
| 1778059662 | 32.22° C | 34% | 812.1 hPa | - | - | - | - |
| 1778059048 | 32.22° C | 34% | 812.1 hPa | - | - | - | - |
| 1778057819 | 32.78° C | 33% | 812.1 hPa | - | - | - | - |
| 1778057205 | 32.78° C | 33% | 812.2 hPa | - | - | - | - |
| 1778055362 | 32.78° C | 33% | 812.2 hPa | - | - | - | - |
| 1778054748 | 32.78° C | 33% | 812.3 hPa | - | - | - | - |
| 1778054134 | 32.78° C | 33% | 812.3 hPa | - | - | - | - |
| 1778051677 | 32.78° C | 34% | 812.4 hPa | - | - | - | - |
| 1778051063 | 32.78° C | 32% | 812.5 hPa | - | - | - | - |
| 1778048606 | 32.22° C | 31% | 812.8 hPa | - | - | - | - |
| 1778047992 | 33.89° C | 29% | 812.8 hPa | - | - | - | - |
| 1778046149 | 33.33° C | 30% | 813 hPa | - | - | - | - |
| 1778044921 | 33.89° C | 29% | 812.8 hPa | - | - | - | - |
| 1778043692 | 33.89° C | 29% | 812.8 hPa | - | - | - | - |
| 1778043078 | 34.44° C | 29% | 812.7 hPa | - | - | - | - |
| 1778042464 | 33.89° C | 29% | 812.6 hPa | - | - | - | - |
| 1778040621 | 33.89° C | 29% | 812.4 hPa | - | - | - | - |
| 1778040007 | 34.44° C | 29% | 812.2 hPa | - | - | - | - |
| 1778039393 | 33.89° C | 28% | 812.1 hPa | - | - | - | - |
| 1778038163 | 33.89° C | 28% | 811.8 hPa | - | - | - | - |
| 1778037549 | 33.33° C | 27% | 811.6 hPa | - | - | - | - |
* Rain since midnight (hover to see other rain measurements)
** Current wind speed in m/s (hover to see current wind gust speed)